This demonstration page uses our WeatherBlox Daily Observations layout. Learn more.

Hourly Observations for March 7, 2020

Temp ( °F °C ) Dew Point ( °F °C ) Humidity (%) Winds ( mph kmh ) Pressure ( in mb ) Visibility ( mi km ) Precip ( " mm )
12:15 am 00:15 Cloudy 41 5 30 -1 66 66 NNW 23 37 30.05 1018 10 16.0934 0 0
12:35 am 00:35 Cloudy 41 5 30 -1 66 66 NNW 21 33 30.06 1018 10 16.0934 0 0
12:55 am 00:55 Cloudy 41 5 30 -1 66 66 NNW 25 41 30.07 1018 10 16.0934 0 0
1:15 am 01:15 Cloudy 41 5 30 -1 66 66 NNW 20 31 30.08 1019 10 16.0934 0 0
1:35 am 01:35 Cloudy 41 5 30 -1 66 66 NNW 18 30 30.09 1019 10 16.0934 0 0
1:55 am 01:55 Cloudy 41 5 30 -1 66 66 N 21 33 30.1 1019 10 16.0934 0 0
2:15 am 02:15 Cloudy 39 4 30 -1 70 70 NNW 16 26 30.12 1020 10 16.0934 0 0
2:35 am 02:35 Cloudy 39 4 30 -1 70 70 NNW 15 24 30.13 1020 10 16.0934 0 0
2:55 am 02:55 Cloudy 39 4 30 -1 70 70 NNW 22 35 30.13 1020 10 16.0934 0 0
3:15 am 03:15 Cloudy 39 4 30 -1 70 70 N 17 28 30.14 1021 10 16.0934 0 0
3:35 am 03:35 Cloudy 37 3 30 -1 75 75 NNW 20 31 30.15 1021 10 16.0934 0 0
3:55 am 03:55 Cloudy 37 3 30 -1 75 75 NNW 16 26 30.16 1021 10 16.0934 0 0
4:15 am 04:15 Cloudy 37 3 30 -1 75 75 N 16 26 30.17 1022 10 16.0934 0 0
4:35 am 04:35 Cloudy 37 3 30 -1 75 75 N 16 26 30.19 1022 10 16.0934 0 0
4:55 am 04:55 Cloudy 37 3 30 -1 75 75 N 14 22 30.2 1023 10 16.0934 0 0
5:15 am 05:15 Mostly Cloudy 36 2 30 -1 81 81 N 17 28 30.22 1023 10 16.0934 0 0
5:35 am 05:35 Mostly Cloudy 36 2 28 -2 75 75 N 14 22 30.24 1024 10 16.0934 0 0
5:55 am 05:55 Cloudy 36 2 28 -2 75 75 NNW 13 20 30.25 1024 10 16.0934 0 0
6:15 am 06:15 Cloudy 37 3 28 -2 70 70 N 12 19 30.26 1025 10 16.0934 0 0
6:35 am 06:35 Mostly Cloudy 37 3 28 -2 70 70 N 9 15 30.27 1025 10 16.0934 0 0
6:55 am 06:55 Mostly Cloudy 37 3 28 -2 70 70 N 8 13 30.29 1026 10 16.0934 0 0
7:15 am 07:15 Cloudy 37 3 28 -2 70 70 N 6 9 30.3 1026 10 16.0934 0 0
7:35 am 07:35 Cloudy 37 3 28 -2 70 70 N 9 15 30.31 1026 10 16.0934 0 0
7:55 am 07:55 Cloudy 37 3 28 -2 70 70 N 23 37 30.32 1027 10 16.0934 0 0
8:15 am 08:15 Cloudy 37 3 27 -3 65 65 NNW 21 33 30.33 1027 10 16.0934 0 0
8:35 am 08:35 Cloudy 37 3 27 -3 65 65 NNW 16 26 30.35 1028 10 16.0934 0 0
8:55 am 08:55 Cloudy 41 5 27 -3 57 57 N 20 31 30.35 1028 10 16.0934 0 0
9:15 am 09:15 Cloudy 39 4 27 -3 61 61 N 20 31 30.37 1028 10 16.0934 0 0
9:35 am 09:35 Partly Cloudy 41 5 25 -4 53 53 NNW 24 39 30.36 1028 10 16.0934 0 0
9:55 am 09:55 Partly Cloudy 41 5 27 -3 57 57 N 17 28 30.37 1029 10 16.0934 0 0
10:15 am 10:15 Partly Cloudy 41 5 27 -3 57 57 NNW 22 35 30.37 1029 10 16.0934 0 0
10:35 am 10:35 Partly Cloudy 43 6 27 -3 53 53 N 21 33 30.38 1029 10 16.0934 0 0
10:55 am 10:55 Partly Cloudy 43 6 27 -3 53 53 NNW 22 35 30.38 1029 10 16.0934 0 0
11:15 am 11:15 Partly Cloudy 43 6 27 -3 53 53 NNW 21 33 30.39 1029 10 16.0934 0 0
11:35 am 11:35 Sunny 45 7 23 -5 42 42 NNW 21 33 30.39 1029 10 16.0934 0 0
11:55 am 11:55 Sunny 45 7 23 -5 42 42 N 23 37 30.39 1029 10 16.0934 0 0
12:15 pm 12:15 Sunny 45 7 23 -5 42 42 NNW 22 35 30.39 1029 10 16.0934 0 0
12:35 pm 12:35 Sunny 46 8 23 -5 40 40 NW 20 31 30.39 1029 10 16.0934 0 0
12:55 pm 12:55 Sunny 46 8 23 -5 40 40 NNW 20 31 30.39 1029 10 16.0934 0 0
1:15 pm 13:15 Sunny 46 8 23 -5 40 40 NNW 21 33 30.39 1029 10 16.0934 0 0
1:35 pm 13:35 Sunny 48 9 23 -5 37 37 NNW 17 28 30.38 1029 10 16.0934 0 0
1:55 pm 13:55 Sunny 48 9 21 -6 34 34 N 14 22 30.38 1029 10 16.0934 0 0
2:15 pm 14:15 Sunny 48 9 21 -6 34 34 N 18 30 30.38 1029 10 16.0934 0 0
2:35 pm 14:35 Sunny 50 10 19 -7 30 30 NNW 20 31 30.38 1029 10 16.0934 0 0
2:55 pm 14:55 Sunny 50 10 19 -7 30 30 NNW 15 24 30.38 1029 10 16.0934 0 0
3:15 pm 15:15 Sunny 50 10 21 -6 32 32 NNW 14 22 30.39 1029 10 16.0934 0 0
3:35 pm 15:35 Sunny 50 10 19 -7 30 30 N 13 20 30.39 1029 10 16.0934 0 0
3:55 pm 15:55 Sunny 50 10 19 -7 30 30 N 14 22 30.39 1029 10 16.0934 0 0
4:15 pm 16:15 Sunny 50 10 19 -7 30 30 NNW 14 22 30.39 1029 10 16.0934 0 0
4:35 pm 16:35 Sunny 50 10 21 -6 32 32 NNW 16 26 30.39 1029 10 16.0934 0 0
4:55 pm 16:55 Sunny 50 10 19 -7 30 30 N 12 19 30.41 1030 10 16.0934 0 0
5:15 pm 17:15 Sunny 48 9 21 -6 34 34 NW 15 24 30.41 1030 10 16.0934 0 0
5:35 pm 17:35 Sunny 48 9 19 -7 32 32 NNW 12 19 30.41 1030 10 16.0934 0 0
5:55 pm 17:55 Sunny 46 8 21 -6 37 37 NNW 12 19 30.42 1030 10 16.0934 0 0
6:15 pm 18:15 Clear 45 7 19 -7 37 37 NNW 10 17 30.43 1031 10 16.0934 0 0
6:35 pm 18:35 Clear 45 7 19 -7 37 37 NNW 9 15 30.43 1031 10 16.0934 0 0
6:55 pm 18:55 Clear 43 6 19 -7 39 39 NNW 6 9 30.44 1031 10 16.0934 0 0
7:15 pm 19:15 Clear 43 6 19 -7 39 39 NW 5 7 30.44 1031 10 16.0934 0 0
7:35 pm 19:35 Clear 41 5 19 -7 42 42 NW 6 9 30.45 1031 10 16.0934 0 0
7:55 pm 19:55 Clear 37 3 19 -7 48 48 WNW 6 9 30.47 1032 10 16.0934 0 0
8:15 pm 20:15 Clear 37 3 21 -6 52 52 NW 7 11 30.47 1032 10 16.0934 0 0
8:35 pm 20:35 Clear 39 4 23 -5 52 52 NW 7 11 30.48 1032 10 16.0934 0 0
8:55 pm 20:55 Clear 39 4 23 -5 52 52 NNW 8 13 30.48 1032 10 16.0934 0 0
9:15 pm 21:15 Clear 37 3 23 -5 56 56 NW 8 13 30.49 1032 10 16.0934 0 0
9:35 pm 21:35 Clear 37 3 23 -5 56 56 NW 6 9 30.49 1032 10 16.0934 0 0
9:55 pm 21:55 Clear 37 3 23 -5 56 56 WNW 5 7 30.5 1033 10 16.0934 0 0
10:15 pm 22:15 Clear 37 3 23 -5 56 56 W 3 6 30.5 1033 10 16.0934 0 0
10:35 pm 22:35 Clear 37 3 23 -5 56 56 WNW 3 6 30.5 1033 10 16.0934 0 0
10:55 pm 22:55 Clear 36 2 23 -5 60 60 NW 5 7 30.51 1033 10 16.0934 0 0
11:15 pm 23:15 Clear 36 2 23 -5 60 60 WNW 5 7 30.51 1033 10 16.0934 0 0
11:35 pm 23:35 Clear 36 2 23 -5 60 60 W 3 6 30.51 1033 10 16.0934 0 0
11:55 pm 23:55 Clear 36 2 23 -5 60 60 WNW 3 6 30.51 1033 10 16.0934 0 0

Powered by AerisWeather